This is the latest recevied weather packets stored in our database for station/object K5RWS. If no packets are shown the sender has not sent any weather packets the latest 10 day(s).
| Time | Temp. | Humidity | Pressure | Rain* | Wind** | Luminosity | Snow |
|---|---|---|---|---|---|---|---|
| 1777847738 | 21.67° C | 23% | 1017.6 hPa | 0 mm | - | 414 W/m² | - |
| 1777847433 | 21.67° C | 23% | 1017.4 hPa | 0 mm | - | 429 W/m² | - |
| 1777847132 | 21.67° C | 24% | 1017.9 hPa | 0 mm | - | 442 W/m² | - |
| 1777846829 | 22.22° C | 23% | 1017.9 hPa | 0 mm | - | 456 W/m² | - |
| 1777846527 | 22.78° C | 23% | 1017.9 hPa | 0 mm | - | 471 W/m² | - |
| 1777846224 | 21.67° C | 24% | 1018.2 hPa | 0 mm | - | 485 W/m² | - |
| 1777845920 | 21.67° C | 24% | 1018.3 hPa | 0 mm | - | 499 W/m² | - |
| 1777845617 | 22.22° C | 23% | 1018.4 hPa | 0 mm | - | 513 W/m² | - |
| 1777845315 | 21.67° C | 24% | 1018.3 hPa | 0 mm | - | 524 W/m² | - |
| 1777845011 | 21.11° C | 25% | 1018.4 hPa | 0 mm | - | 536 W/m² | - |
| 1777844710 | 21.11° C | 26% | 1018.7 hPa | 0 mm | - | 550 W/m² | - |
| 1777844406 | 22.22° C | 24% | 1018.7 hPa | 0 mm | - | 563 W/m² | - |
| 1777844105 | 21.11° C | 25% | 1018.8 hPa | 0 mm | - | 575 W/m² | - |
| 1777843801 | 22.22° C | 25% | 1019 hPa | 0 mm | - | 587 W/m² | - |
| 1777843493 | 21.11° C | 25% | 1018.9 hPa | 0 mm | - | 597 W/m² | - |
| 1777843190 | 21.67° C | 24% | 1019 hPa | 0 mm | - | 608 W/m² | - |
| 1777842887 | 21.67° C | 25% | 1019.3 hPa | 0 mm | - | 621 W/m² | - |
| 1777842583 | 21.67° C | 26% | 1019.4 hPa | 0 mm | - | 629 W/m² | - |
| 1777842280 | 21.11° C | 27% | 1019.6 hPa | 0 mm | - | 639 W/m² | - |
| 1777841980 | 20.56° C | 27% | 1019.6 hPa | 0 mm | - | 651 W/m² | - |
| 1777841677 | 21.11° C | 27% | 1019.5 hPa | 0 mm | - | 661 W/m² | - |
| 1777841373 | 21.67° C | 26% | 1019.8 hPa | 0 mm | - | 668 W/m² | - |
| 1777841070 | 21.11° C | 26% | 1020.2 hPa | 0 mm | - | 678 W/m² | - |
| 1777840767 | 21.11° C | 27% | 1020.1 hPa | 0 mm | - | 685 W/m² | - |
| 1777840465 | 20.56° C | 25% | 1020.4 hPa | 0 mm | - | 692 W/m² | - |
* Rain latest hour (hover to see other rain measurements)
** Current wind speed in m/s (hover to see current wind gust speed)